Address 0x42f894dfa1f7cda60e63013c96717d8029d23b54

Txn Hash Method
Block
From
To
Value [Txn Fee]
0x310044b471fbf21c813416404f0f1e9424702a4e70ca73019322f2a607406978Transfer147298932021-12-06 6:22:281 hr 16 mins ago0xaa25aa7a19f9c426e07dee59b12f944f4d9f1dd3 IN 0x42f894dfa1f7cda60e63013c96717d8029d23b541 BNB0.000378
0xca3068a55616ca225401d67b16f917bf833960b2bb0f71a71f2ee2063a7ca0370x60806040146492152021-12-03 10:53:092 days 20 hrs ago0x42f894dfa1f7cda60e63013c96717d8029d23b54OUT Contract Creation0 BNB0.07687246
0x36b1c6b25f95bb791dab59a0e906804793fc713f3793d7b2855525268a1b58a70x60806040146491752021-12-03 10:51:092 days 20 hrs ago0x42f894dfa1f7cda60e63013c96717d8029d23b54OUT Contract Creation0 BNB0.07687246
0x0bbc3d66b02c2e858101011312cc6f9e1da68b3c24368374043a31167f462e3fSet Completed146491692021-12-03 10:50:512 days 20 hrs ago0x42f894dfa1f7cda60e63013c96717d8029d23b54OUT 0xf00f6e06c75ed5a17505f149a9ba2c07790ecdc40 BNB0.0005451
0x6384d82c76e8f25b3754c3acbd764b8aeddd62e6ef1c8cc8333e5d4696da4c110x60806040146491612021-12-03 10:50:272 days 20 hrs ago0x42f894dfa1f7cda60e63013c96717d8029d23b54OUT Contract Creation0 BNB0.00892166
0x02c8d20b5ad0702c53e01b1be99e31f68ccab726db5757dd98639adc85fdc1a6Set Completed146491562021-12-03 10:50:122 days 20 hrs ago0x42f894dfa1f7cda60e63013c96717d8029d23b54OUT 0xf00f6e06c75ed5a17505f149a9ba2c07790ecdc40 BNB0.0005451
0x2369e89be8c2d8093570baa47929369f92b0c39a3a26abd5b3c6c447d98ecc280x60806040146491492021-12-03 10:49:512 days 20 hrs ago0x42f894dfa1f7cda60e63013c96717d8029d23b54OUT Contract Creation0 BNB0.04652578
0xf6e9f9004d08bf6dcae64644ab498dd3ba82dbd5a6e0d7348f7fe59b6945aa6cSet Completed146491432021-12-03 10:49:332 days 20 hrs ago0x42f894dfa1f7cda60e63013c96717d8029d23b54OUT 0xf00f6e06c75ed5a17505f149a9ba2c07790ecdc40 BNB0.0005451
0xc1db23df2dda6a1926cd90bb1c0c1b220fbaf5273d80352b3dffde231f62a27f0x60806040146491352021-12-03 10:49:092 days 20 hrs ago0x42f894dfa1f7cda60e63013c96717d8029d23b54OUT Contract Creation0 BNB0.04492852
0x3ea373e8ecb69c9d4de83f59849608a1042a6830f1d4b436608b40e5532f1e90Set Completed146491292021-12-03 10:48:512 days 20 hrs ago0x42f894dfa1f7cda60e63013c96717d8029d23b54OUT 0xf00f6e06c75ed5a17505f149a9ba2c07790ecdc40 BNB0.0005451
0x5d5f846d791e8d5b0494d59a96167f08790f93b9705d52a08b55c3f1918ca5ed0x60806040146491222021-12-03 10:48:302 days 20 hrs ago0x42f894dfa1f7cda60e63013c96717d8029d23b54OUT Contract Creation0 BNB0.02190618
0xd13f80254e16142159103e26eb2507d3a2286270dd136613b80d58713aa19c94Set Completed146491162021-12-03 10:48:122 days 20 hrs ago0x42f894dfa1f7cda60e63013c96717d8029d23b54OUT 0xf00f6e06c75ed5a17505f149a9ba2c07790ecdc40 BNB0.0005451
0x6314b67ea0e39a779928f4bb68306cae205f5d259051dcfafb7936b8f26ba7820x60806040146491082021-12-03 10:47:482 days 20 hrs ago0x42f894dfa1f7cda60e63013c96717d8029d23b54OUT Contract Creation0 BNB0.03935908
0xe0f3003cdc75a9f7673f945aa90f04dc88c94e26c3dcf1762ef6406d566f37fbSet Completed146491032021-12-03 10:47:332 days 20 hrs ago0x42f894dfa1f7cda60e63013c96717d8029d23b54OUT 0xf00f6e06c75ed5a17505f149a9ba2c07790ecdc40 BNB0.0005451
0xf3088f9604078c53b9daa77b4c050c9b98f958d4cd7e3c9317051bccb1360dd00x60806040146490952021-12-03 10:47:092 days 20 hrs ago0x42f894dfa1f7cda60e63013c96717d8029d23b54OUT Contract Creation0 BNB0.09689164
0x37a11f552fc6211700614000ad468c67929d9614919c7972a64877a4652d54d8Set Completed146490892021-12-03 10:46:512 days 20 hrs ago0x42f894dfa1f7cda60e63013c96717d8029d23b54OUT 0xf00f6e06c75ed5a17505f149a9ba2c07790ecdc40 BNB0.0005451
0xf1230247b263af0258ca4fcea1b6e369b329e22385a5a20676bd1a958e840c740x60806040146490812021-12-03 10:46:272 days 20 hrs ago0x42f894dfa1f7cda60e63013c96717d8029d23b54OUT Contract Creation0 BNB0.10581318
0xa848186b328b28cd2f3d5c1d406bedae0bb26b3e2f4ad2eac5ae3957eb70b365Set Completed146490752021-12-03 10:46:092 days 20 hrs ago0x42f894dfa1f7cda60e63013c96717d8029d23b54OUT 0xf00f6e06c75ed5a17505f149a9ba2c07790ecdc40 BNB0.0005451
0x191955c96a67efa2091cd6ff02e26dd037c4bd9ae01013999f714b2d6e678ae20x60806040146490672021-12-03 10:45:452 days 20 hrs ago0x42f894dfa1f7cda60e63013c96717d8029d23b54OUT Contract Creation0 BNB0.08782788
0xc5c32c37f0278e58166ed4fe5a44a932b7edd02a7662f0cad467c6447515b887Set Completed146490612021-12-03 10:45:272 days 20 hrs ago0x42f894dfa1f7cda60e63013c96717d8029d23b54OUT 0xf00f6e06c75ed5a17505f149a9ba2c07790ecdc40 BNB0.0008451
0x899efce8cebb621fc0db65cb973dc86259b06b731501b8359369ac1363f2ef0f0x60c06040146490542021-12-03 10:45:062 days 20 hrs ago0x42f894dfa1f7cda60e63013c96717d8029d23b54OUT Contract Creation0 BNB0.022082
0xf9c9ee2dc16e38ae7b081ad9f26426f3a248f34bfd88207934f2820ee48b7dbd0x60806040146490462021-12-03 10:44:422 days 20 hrs ago0x42f894dfa1f7cda60e63013c96717d8029d23b54OUT Contract Creation0 BNB0.00553468
0x5c3bd1aa3bcf705a1317a5885a19b3b6eee863349610a81697df9c320c0b5fe30x60806040146490382021-12-03 10:44:182 days 20 hrs ago0x42f894dfa1f7cda60e63013c96717d8029d23b54OUT Contract Creation0 BNB0.03971382
0xd58be34d357246cda7847cf5a866ea167e9f8736f12f9d105ba57b366a99249f0x60806040146490292021-12-03 10:43:512 days 20 hrs ago0x42f894dfa1f7cda60e63013c96717d8029d23b54OUT Contract Creation0 BNB0.00307412
0xaa03b0cf8ec1e0b8b10bf32ff48b0f818619ae36f90579dbd70bd824c45875240x8c78a40c146190002021-12-02 8:54:413 days 22 hrs ago0x42f894dfa1f7cda60e63013c96717d8029d23b54OUT 0xab7934b91b61332c972e766c0e02207a6889797e0 BNB0.03213869
[ Download CSV Export 
Parent Txn Hash Block From To Value
Loading

Contract Name:
0 BNB

Compiler Version
0

Optimization Enabled:
0 BNB

Other Settings:
-NA-
Block Transaction Gas Used Reward
Age Block Fee Address BC Fee Address Voting Power Jailed Incoming
Block Uncle Number Difficulty Gas Used Reward
Loading